Powrót do katalogu

STARLINK-32947

AktywnyŁącznośćVLEO
NORAD 63121·PAYLOAD·🇺🇸 United States

Wystrzelony Feb 27, 2025 z Cape Canaveral Space Force Station

Loading…

Następne Przeloty (najbliższe 24 godziny)

TLE

ŚwieżeSource: CelesTrak SupGP

Epoka: Sep 14, 2026, 15:19 UTC

1 63121C 25039T   26257.63868056 -.00023846  00000+0 -86399-3 0  2575
2 63121  43.0036  25.1976 0001577 273.5772 311.1429 15.27579614    13

Śledź STARLINK-32947 w czasie rzeczywistym z AllMySat

Download on the App Store